Time,TemperatureF,DewpointF,PressureIn,WindDirection,WindDirectionDegrees,WindSpeedMPH,WindSpeedGustMPH,Humidity,HourlyPrecipIn,Conditions,Clouds,dailyrainin,SolarRadiationWatts/m^2,SoftwareType,DateUTC
2013-03-27 00:05:00,40.4,37.0,29.87,NW,305,0.0,-999.0,86,-99.99,,,0.00,0,weatherlink.com 1.10,2013-03-27 07:05:00,
2013-03-27 00:20:00,39.8,36.0,29.87,NW,305,3.0,-999.0,87,-99.99,,,0.00,0,weatherlink.com 1.10,2013-03-27 07:20:00,
2013-03-27 00:35:00,38.9,36.0,29.87,WNW,300,0.0,-999.0,88,-99.99,,,0.00,0,weatherlink.com 1.10,2013-03-27 07:35:00,
2013-03-27 00:50:00,38.9,36.0,29.87,WNW,285,2.0,-999.0,88,-99.99,,,0.00,0,weatherlink.com 1.10,2013-03-27 07:50:00,
2013-03-27 01:05:00,38.2,35.0,29.88,WSW,244,3.0,-999.0,88,-99.99,,,0.00,0,weatherlink.com 1.10,2013-03-27 08:05:00,
2013-03-27 01:20:00,38.8,36.0,29.87,WSW,244,0.0,-999.0,88,-99.99,,,0.00,0,weatherlink.com 1.10,2013-03-27 08:20:00,
2013-03-27 01:35:00,39.1,36.0,29.86,WSW,244,0.0,-999.0,88,-99.99,,,0.00,0,weatherlink.com 1.10,2013-03-27 08:35:00,
2013-03-27 01:50:00,39.5,37.0,29.86,WSW,244,0.0,-999.0,89,-99.99,,,0.00,0,weatherlink.com 1.10,2013-03-27 08:50:00,
2013-03-27 02:05:00,39.4,36.0,29.86,WSW,244,3.0,-999.0,87,-99.99,,,0.00,0,weatherlink.com 1.10,2013-03-27 09:05:00,
2013-03-27 02:20:00,39.2,36.0,29.86,WSW,244,2.0,-999.0,87,-99.99,,,0.00,0,weatherlink.com 1.10,2013-03-27 09:20:00,
2013-03-27 02:35:00,39.1,36.0,29.86,WSW,244,0.0,-999.0,87,-99.99,,,0.00,0,weatherlink.com 1.10,2013-03-27 09:35:00,
2013-03-27 02:50:00,39.8,37.0,29.86,WSW,244,0.0,-999.0,88,-99.99,,,0.00,0,weatherlink.com 1.10,2013-03-27 09:50:00,
2013-03-27 03:05:00,39.1,36.0,29.85,WSW,244,0.0,-999.0,88,-99.99,,,0.00,0,weatherlink.com 1.10,2013-03-27 10:05:00,
2013-03-27 03:20:00,39.0,36.0,29.85,WSW,244,0.0,-999.0,87,-99.99,,,0.00,0,weatherlink.com 1.10,2013-03-27 10:20:00,
2013-03-27 03:35:00,38.8,36.0,29.85,WSW,244,0.0,-999.0,88,-99.99,,,0.00,0,weatherlink.com 1.10,2013-03-27 10:35:00,
2013-03-27 03:50:00,38.0,35.0,29.85,WSW,244,4.0,-999.0,88,-99.99,,,0.00,0,weatherlink.com 1.10,2013-03-27 10:50:00,
2013-03-27 04:05:00,37.6,35.0,29.84,WSW,244,3.0,-999.0,90,-99.99,,,0.00,0,weatherlink.com 1.10,2013-03-27 11:05:00,
2013-03-27 04:20:00,38.6,36.0,29.84,WSW,244,2.0,-999.0,89,-99.99,,,0.00,0,weatherlink.com 1.10,2013-03-27 11:20:00,
2013-03-27 04:35:00,38.7,36.0,29.84,WSW,244,0.0,-999.0,89,-99.99,,,0.00,0,weatherlink.com 1.10,2013-03-27 11:35:00,
2013-03-27 04:50:00,38.6,35.0,29.84,WSW,244,2.0,-999.0,87,-99.99,,,0.00,0,weatherlink.com 1.10,2013-03-27 11:50:00,
2013-03-27 05:05:00,38.0,35.0,29.84,WSW,244,0.0,-999.0,89,-99.99,,,0.00,0,weatherlink.com 1.10,2013-03-27 12:05:00,
2013-03-27 05:20:00,38.1,36.0,29.84,WSW,244,0.0,-999.0,90,-99.99,,,0.00,0,weatherlink.com 1.10,2013-03-27 12:20:00,
2013-03-27 05:35:00,38.1,35.0,29.84,WSW,244,0.0,-999.0,89,-99.99,,,0.00,0,weatherlink.com 1.10,2013-03-27 12:35:00,
2013-03-27 05:50:00,37.9,35.0,29.84,WSW,244,0.0,-999.0,88,-99.99,,,0.00,0,weatherlink.com 1.10,2013-03-27 12:50:00,
2013-03-27 06:20:00,35.4,33.0,29.84,WSW,244,2.0,-999.0,91,-99.99,,,0.00,0,weatherlink.com 1.10,2013-03-27 13:20:00,
2013-03-27 06:35:00,35.7,34.0,29.84,West,265,5.0,-999.0,93,-99.99,,,0.00,0,weatherlink.com 1.10,2013-03-27 13:35:00,
2013-03-27 06:50:00,35.9,34.0,29.84,West,265,3.0,-999.0,92,-99.99,,,0.00,0,weatherlink.com 1.10,2013-03-27 13:50:00,
2013-03-27 07:05:00,35.6,34.0,29.84,West,265,2.0,-999.0,93,-99.99,,,0.00,9,weatherlink.com 1.10,2013-03-27 14:05:00,
2013-03-27 07:20:00,35.8,34.0,29.84,West,265,0.0,-999.0,93,-99.99,,,0.00,18,weatherlink.com 1.10,2013-03-27 14:20:00,
2013-03-27 07:35:00,35.9,34.0,29.84,West,265,2.0,-999.0,93,-99.99,,,0.00,47,weatherlink.com 1.10,2013-03-27 14:35:00,
2013-03-27 07:50:00,35.7,34.0,29.85,West,265,3.0,-999.0,92,-99.99,,,0.00,141,weatherlink.com 1.10,2013-03-27 14:50:00,
2013-03-27 08:05:00,37.4,35.0,29.84,West,265,1.0,-999.0,92,-99.99,,,0.00,190,weatherlink.com 1.10,2013-03-27 15:05:00,
2013-03-27 08:20:00,38.9,37.0,29.85,West,265,3.0,-999.0,91,-99.99,,,0.00,285,weatherlink.com 1.10,2013-03-27 15:20:00,
2013-03-27 08:35:00,40.2,37.0,29.85,West,265,0.0,-999.0,89,-99.99,,,0.00,171,weatherlink.com 1.10,2013-03-27 15:35:00,
2013-03-27 08:50:00,41.3,38.0,29.84,West,265,0.0,-999.0,87,-99.99,,,0.00,448,weatherlink.com 1.10,2013-03-27 15:50:00,
2013-03-27 09:05:00,42.5,38.0,29.84,West,265,0.0,-999.0,83,-99.99,,,0.00,181,weatherlink.com 1.10,2013-03-27 16:05:00,
2013-03-27 09:20:00,42.6,38.0,29.84,West,265,1.0,-999.0,83,-99.99,,,0.00,476,weatherlink.com 1.10,2013-03-27 16:20:00,
2013-03-27 09:35:00,45.5,39.0,29.85,SSE,150,0.0,-999.0,79,-99.99,,,0.00,288,weatherlink.com 1.10,2013-03-27 16:35:00,
2013-03-27 09:50:00,45.5,38.0,29.84,East,100,1.0,-999.0,75,-99.99,,,0.00,176,weatherlink.com 1.10,2013-03-27 16:50:00,
2013-03-27 10:05:00,45.0,38.0,29.84,East,100,2.0,-999.0,75,-99.99,,,0.00,369,weatherlink.com 1.10,2013-03-27 17:05:00,
2013-03-27 10:20:00,45.4,38.0,29.85,North,11,5.0,-999.0,76,-99.99,,,0.00,664,weatherlink.com 1.10,2013-03-27 17:20:00,
2013-03-27 10:35:00,46.6,39.0,29.84,NE,47,3.0,-999.0,74,-99.99,,,0.00,663,weatherlink.com 1.10,2013-03-27 17:35:00,
2013-03-27 10:50:00,47.4,39.0,29.84,NE,50,6.0,-999.0,72,-99.99,,,0.00,737,weatherlink.com 1.10,2013-03-27 17:50:00,
2013-03-27 11:05:00,48.3,39.0,29.83,East,82,1.0,-999.0,69,-99.99,,,0.00,394,weatherlink.com 1.10,2013-03-27 18:05:00,
2013-03-27 11:20:00,47.6,39.0,29.83,NNE,18,2.0,-999.0,71,-99.99,,,0.00,265,weatherlink.com 1.10,2013-03-27 18:20:00,
2013-03-27 11:35:00,48.6,39.0,29.83,North,360,9.0,-999.0,70,-99.99,,,0.00,1014,weatherlink.com 1.10,2013-03-27 18:35:00,
2013-03-27 11:50:00,49.4,39.0,29.82,WNW,301,6.0,-999.0,67,-99.99,,,0.00,345,weatherlink.com 1.10,2013-03-27 18:50:00,
2013-03-27 12:05:00,50.5,37.0,29.82,SSE,160,2.0,-999.0,61,-99.99,,,0.00,455,weatherlink.com 1.10,2013-03-27 19:05:00,
2013-03-27 12:20:00,51.7,36.0,29.82,SSE,163,8.0,-999.0,56,-99.99,,,0.00,471,weatherlink.com 1.10,2013-03-27 19:20:00,
2013-03-27 12:35:00,52.5,36.0,29.82,South,171,1.0,-999.0,54,-99.99,,,0.00,427,weatherlink.com 1.10,2013-03-27 19:35:00,
2013-03-27 12:50:00,53.2,35.0,29.82,SSE,167,1.0,-999.0,51,-99.99,,,0.00,413,weatherlink.com 1.10,2013-03-27 19:50:00,
2013-03-27 13:05:00,53.1,36.0,29.82,SSE,154,4.0,-999.0,52,-99.99,,,0.00,366,weatherlink.com 1.10,2013-03-27 20:05:00,
2013-03-27 13:20:00,52.9,35.0,29.82,West,271,8.0,-999.0,51,-99.99,,,0.00,343,weatherlink.com 1.10,2013-03-27 20:20:00,
2013-03-27 13:35:00,52.8,36.0,29.82,West,264,7.0,-999.0,53,-99.99,,,0.00,543,weatherlink.com 1.10,2013-03-27 20:35:00,
2013-03-27 13:50:00,54.0,36.0,29.81,WNW,297,1.0,-999.0,50,-99.99,,,0.00,545,weatherlink.com 1.10,2013-03-27 20:50:00,
2013-03-27 14:05:00,53.5,35.0,29.80,NW,322,7.0,-999.0,49,-99.99,,,0.00,192,weatherlink.com 1.10,2013-03-27 21:05:00,
2013-03-27 14:20:00,52.5,35.0,29.80,NW,306,7.0,-999.0,51,-99.99,,,0.00,155,weatherlink.com 1.10,2013-03-27 21:20:00,
2013-03-27 14:35:00,50.5,38.0,29.81,NNW,333,9.0,-999.0,63,-99.99,,,0.00,149,weatherlink.com 1.10,2013-03-27 21:35:00,
2013-03-27 14:50:00,48.4,39.0,29.83,SSW,196,13.0,-999.0,70,-99.99,,,0.01,97,weatherlink.com 1.10,2013-03-27 21:50:00,
2013-03-27 15:05:00,47.9,40.0,29.81,South,190,3.0,-999.0,73,-99.99,,,0.01,425,weatherlink.com 1.10,2013-03-27 22:05:00,
2013-03-27 15:20:00,49.8,40.0,29.80,NNE,13,9.0,-999.0,68,-99.99,,,0.01,329,weatherlink.com 1.10,2013-03-27 22:20:00,
2013-03-27 15:35:00,52.3,42.0,29.80,NE,38,10.0,-999.0,68,-99.99,,,0.01,758,weatherlink.com 1.10,2013-03-27 22:35:00,
2013-03-27 15:50:00,52.3,40.0,29.80,North,5,8.0,-999.0,63,-99.99,,,0.01,628,weatherlink.com 1.10,2013-03-27 22:50:00,
2013-03-27 16:05:00,53.1,39.0,29.80,NE,51,11.0,-999.0,59,-99.99,,,0.01,568,weatherlink.com 1.10,2013-03-27 23:05:00,
2013-03-27 16:20:00,52.4,39.0,29.80,North,9,6.0,-999.0,61,-99.99,,,0.01,251,weatherlink.com 1.10,2013-03-27 23:20:00,
2013-03-27 16:35:00,52.6,39.0,29.80,North,360,10.0,-999.0,60,-99.99,,,0.01,522,weatherlink.com 1.10,2013-03-27 23:35:00,
2013-03-27 16:50:00,53.7,39.0,29.79,NNW,343,8.0,-999.0,58,-99.99,,,0.01,459,weatherlink.com 1.10,2013-03-27 23:50:00,
2013-03-27 17:05:00,52.5,39.0,29.79,NNE,17,6.0,-999.0,61,-99.99,,,0.01,388,weatherlink.com 1.10,2013-03-28 00:05:00,
2013-03-27 17:20:00,51.3,39.0,29.79,NE,48,10.0,-999.0,62,-99.99,,,0.01,118,weatherlink.com 1.10,2013-03-28 00:20:00,
2013-03-27 17:35:00,50.9,38.0,29.80,NNE,26,4.0,-999.0,62,-99.99,,,0.01,47,weatherlink.com 1.10,2013-03-28 00:35:00,
2013-03-27 17:50:00,50.3,39.0,29.81,NNW,340,3.0,-999.0,65,-99.99,,,0.01,47,weatherlink.com 1.10,2013-03-28 00:50:00,
2013-03-27 18:05:00,49.3,39.0,29.82,NW,313,4.0,-999.0,68,-99.99,,,0.01,65,weatherlink.com 1.10,2013-03-28 01:05:00,
2013-03-27 18:20:00,48.3,40.0,29.82,NNW,348,5.0,-999.0,72,-99.99,,,0.01,25,weatherlink.com 1.10,2013-03-28 01:20:00,
2013-03-27 18:35:00,47.9,39.0,29.83,NNW,348,2.0,-999.0,72,-99.99,,,0.01,25,weatherlink.com 1.10,2013-03-28 01:35:00,
2013-03-27 18:50:00,47.9,39.0,29.83,NNW,337,5.0,-999.0,72,-99.99,,,0.02,19,weatherlink.com 1.10,2013-03-28 01:50:00,
2013-03-27 19:05:00,47.3,40.0,29.83,NNW,341,2.0,-999.0,76,-99.99,,,0.02,16,weatherlink.com 1.10,2013-03-28 02:05:00,
2013-03-27 19:20:00,45.6,39.0,29.83,NE,48,0.0,-999.0,79,-99.99,,,0.02,7,weatherlink.com 1.10,2013-03-28 02:20:00,
2013-03-27 19:35:00,44.7,39.0,29.83,NE,48,0.0,-999.0,80,-99.99,,,0.02,0,weatherlink.com 1.10,2013-03-28 02:35:00,
2013-03-27 19:50:00,43.7,39.0,29.84,NE,48,0.0,-999.0,82,-99.99,,,0.02,0,weatherlink.com 1.10,2013-03-28 02:50:00,
2013-03-27 20:05:00,43.6,39.0,29.85,NE,48,0.0,-999.0,83,-99.99,,,0.02,0,weatherlink.com 1.10,2013-03-28 03:05:00,
2013-03-27 20:20:00,43.0,39.0,29.85,NE,48,0.0,-999.0,84,-99.99,,,0.02,0,weatherlink.com 1.10,2013-03-28 03:20:00,
2013-03-27 20:35:00,43.1,39.0,29.86,NE,48,4.0,-999.0,84,-99.99,,,0.02,0,weatherlink.com 1.10,2013-03-28 03:35:00,
2013-03-27 20:50:00,42.2,38.0,29.86,SW,224,5.0,-999.0,84,-99.99,,,0.02,0,weatherlink.com 1.10,2013-03-28 03:50:00,
2013-03-27 21:05:00,41.9,39.0,29.87,SW,215,1.0,-999.0,88,-99.99,,,0.02,0,weatherlink.com 1.10,2013-03-28 04:05:00,
2013-03-27 21:20:00,43.3,39.0,29.87,SW,219,2.0,-999.0,84,-99.99,,,0.02,0,weatherlink.com 1.10,2013-03-28 04:20:00,
2013-03-27 21:35:00,43.5,39.0,29.87,SW,219,2.0,-999.0,84,-99.99,,,0.02,0,weatherlink.com 1.10,2013-03-28 04:35:00,
2013-03-27 21:50:00,43.4,39.0,29.88,SW,219,0.0,-999.0,83,-99.99,,,0.02,0,weatherlink.com 1.10,2013-03-28 04:50:00,
2013-03-27 22:05:00,43.9,39.0,29.88,SW,219,0.0,-999.0,82,-99.99,,,0.02,0,weatherlink.com 1.10,2013-03-28 05:05:00,
2013-03-27 22:20:00,44.0,39.0,29.89,SW,219,3.0,-999.0,82,-99.99,,,0.02,0,weatherlink.com 1.10,2013-03-28 05:20:00,
2013-03-27 22:35:00,42.5,39.0,29.89,SW,219,3.0,-999.0,87,-99.99,,,0.02,0,weatherlink.com 1.10,2013-03-28 05:35:00,
2013-03-27 22:50:00,42.7,39.0,29.89,SW,219,0.0,-999.0,86,-99.99,,,0.03,0,weatherlink.com 1.10,2013-03-28 05:50:00,
2013-03-27 23:05:00,43.3,39.0,29.89,SW,219,1.0,-999.0,85,-99.99,,,0.03,0,weatherlink.com 1.10,2013-03-28 06:05:00,
2013-03-27 23:20:00,43.2,39.0,29.89,SW,219,0.0,-999.0,86,-99.99,,,0.03,0,weatherlink.com 1.10,2013-03-28 06:20:00,
2013-03-27 23:35:00,43.1,39.0,29.89,SW,219,0.0,-999.0,86,-99.99,,,0.03,0,weatherlink.com 1.10,2013-03-28 06:35:00,
2013-03-27 23:50:00,42.7,39.0,29.89,SW,219,2.0,-999.0,86,-99.99,,,0.03,0,weatherlink.com 1.10,2013-03-28 06:50:00,